This is the latest recevied weather packets stored in our database for station/object N5VIS. If no packets are shown the sender has not sent any weather packets the latest 10 day(s).
| Time | Temp. | Humidity | Pressure | Rain* | Wind** | Luminosity | Snow |
|---|---|---|---|---|---|---|---|
| 1777822169 | 21.67° C | 51% | 1022.2 hPa | 0 mm | - | - | - |
| 1777821866 | 22.22° C | 51% | 1022.3 hPa | 0 mm | - | - | - |
| 1777821564 | 22.22° C | 53% | 1022.2 hPa | 0 mm | - | - | - |
| 1777821262 | 21.67° C | 46% | 1022 hPa | 0 mm | - | - | - |
| 1777820958 | 21.67° C | 46% | 1022.2 hPa | 0 mm | - | - | - |
| 1777820655 | 21.67° C | 46% | 1022.3 hPa | 0 mm | - | - | - |
| 1777820351 | 21.67° C | 48% | 1022.2 hPa | 0 mm | - | - | - |
| 1777820049 | 21.67° C | 48% | 1022.4 hPa | 0 mm | - | - | - |
| 1777819745 | 21.67° C | 49% | 1022.4 hPa | 0 mm | - | - | - |
| 1777819444 | 21.11° C | 50% | 1022.2 hPa | 0 mm | - | - | - |
| 1777819141 | 21.11° C | 49% | 1022.1 hPa | 0 mm | - | - | - |
| 1777818838 | 21.11° C | 51% | 1022.3 hPa | 0 mm | - | - | - |
| 1777818534 | 21.11° C | 52% | 1022.4 hPa | 0 mm | - | - | - |
| 1777818232 | 20.56° C | 54% | 1022.2 hPa | 0 mm | - | - | - |
| 1777817927 | 21.11° C | 45% | 1022 hPa | 0 mm | - | - | - |
| 1777817625 | 21.11° C | 48% | 1022.1 hPa | 0 mm | - | - | - |
| 1777817321 | 21.11° C | 47% | 1021.9 hPa | 0 mm | - | - | - |
| 1777817018 | 20.56° C | 49% | 1021.9 hPa | 0 mm | - | - | - |
| 1777816714 | 20.56° C | 50% | 1021.8 hPa | 0 mm | - | - | - |
| 1777816412 | 20.56° C | 52% | 1021.7 hPa | 0 mm | - | - | - |
| 1777816110 | 20° C | 54% | 1021.7 hPa | 0 mm | - | - | - |
| 1777815807 | 19.44° C | 54% | 1021.7 hPa | 0 mm | - | - | - |
| 1777815504 | 20° C | 57% | 1021.4 hPa | 0 mm | - | - | - |
| 1777813080 | - | - | - | 0 mm | - | - | - |
| 1777812778 | - | - | - | 0 mm | - | - | - |
* Rain latest hour (hover to see other rain measurements)
** Current wind speed in m/s (hover to see current wind gust speed)